Miscellaneous Local Product
Issued by NWS Hastings, NE

Home | Current Version | Previous Version | Graphics & Text | Print | Product List | Glossary On
Versions: 1 2 3 4 5 6 7 8 9 10 11 12 13 14 15 16 17 18 19 20 21 22 23 24 25 26 27 28 29 30 31 32 33 34 35 36 37 38 39 40 41 42 43 44 45 46 47 48 49 50
000
AXUS43 KGID 300602
MISGRI

GID CWA HOURLY WEATHER ROUNDUP
NATIONAL WEATHER SERVICE HASTINGS NE
100 AM CDT THU JUL 30 2015

NOTE: "FAIR" INDICATES FEW OR NO CLOUDS BELOW 12,000 FEET WITH NO
SIGNIFICANT WEATHER AND/OR OBSTRUCTIONS TO VISIBILITY.

...SOUTH CENTRAL NEBRASKA...

CITY           SKY/WX    TMP DP  RH WIND       PRES   REMARKS
GRAND ISLAND   CLEAR     63  55  75 SW3       30.22R
HASTINGS       CLEAR     62  56  80 SW5       30.22S
KEARNEY        CLEAR     64  52  63 S6        30.23S
ORD            CLEAR     60  55  83 CALM      30.19S
YORK           CLEAR     59  57  94 CALM      30.21R
AURORA         CLEAR     61  59  94 SW3       30.21S
LEXINGTON      CLEAR     64  57  80 SE3       30.24S
HOLDREGE       CLEAR     60  53  77 CALM      30.24S
HEBRON         CLEAR     60  57  89 CALM      30.20S

...NEBRASKA PANHANDLE...

CITY           SKY/WX    TMP DP  RH WIND       PRES   REMARKS
CHADRON        CLEAR     58  50  75 W6        30.20F
ALLIANCE       CLEAR     60  50  69 S9        30.24R
SCOTTSBLUFF    CLOUDY    70  49  47 NE8       30.25R THUNDER
SIDNEY         PTCLDY    65  44  46 S14       30.28S

...WESTERN AND NORTH CENTRAL NEBRASKA...

CITY           SKY/WX    TMP DP  RH WIND       PRES   REMARKS
VALENTINE      PTCLDY    63  51  65 SW3       30.20R
AINSWORTH      PTCLDY    68  55  62 SW9       30.20R
ONEILL         CLEAR     66  56  69 W5        30.19R
BROKEN BOW     CLEAR     63  54  72 SW6       30.23S
IMPERIAL       CLEAR     60  49  66 S7        30.27R
NORTH PLATTE   CLEAR     59  53  80 CALM      30.25R
MCCOOK         CLEAR     63  56  78 CALM      30.25S

...EASTERN NEBRASKA...

CITY           SKY/WX    TMP DP  RH WIND       PRES   REMARKS
NORFOLK        CLEAR     66  58  75 CALM      30.16S
SO SIOUX CITY  CLEAR     68  59  73 SW10      30.13S
TEKAMAH        CLEAR     65  61  87 SW6       30.15R
COLUMBUS       CLEAR     66  57  72 SW5       30.19S
ALBION         CLEAR     65  54  66 CALM      30.19S
OMAHA EPPLEY   CLEAR     69  62  78 SE5       30.16S
OFFUTT AFB     CLEAR     60  59  96 S1        30.16R
MILLARD        CLEAR     65  62  89 CALM      30.17R
LINCOLN        CLEAR     66  59  78 CALM      30.19S
NEBRASKA CITY  CLEAR     67  58  72 SW6       30.18S
BEATRICE       CLEAR     65  62  92 CALM      30.19S
FALLS CITY     CLEAR     68  66  93 CALM      30.17S

...NORTHERN KANSAS...

CITY           SKY/WX    TMP DP  RH WIND       PRES   REMARKS
GOODLAND       CLEAR     58  53  84 SE5       30.29S
HILL CITY      CLEAR     63  59  87 NE3       30.24S
NORTON         CLEAR     57  54  88 CALM      30.24S
PHILLIPSBURG   CLEAR     68  61  77 CALM      30.23S
SMITH CENTER   CLEAR     64  55  72 E7        30.23R
HAYS           PTCLDY    70  55  60 E6        30.22R
RUSSELL        CLEAR     66  60  81 E6        30.19F
CONCORDIA      CLEAR     66  62  87 CALM      30.20S
SALINA         MOCLDY    73  65  75 SE6       30.18S
TOPEKA         CLEAR     68  67  96 CALM      30.18R



USA.gov is the U.S. government's official web portal to all federal, state and local government web resources and services.